sat.trackr.live / text

‹ back to catalog

BEIDOU-2 IGSO-1 (C06)

NORAD 36828 · 2010-036A

PAYLOAD ACTIVE UNKNOWN

§ Identity

Operator
Country
PRC
Launch date
2010-07-31
Launch site
XICLF
Launch vehicle
Mass (kg)
RCS (m²)
31.62

Purposes: comms, nav

External: N2YO · Heavens-Above · Gunter

§ Orbital elements

Epoch: 2026-05-21T00:16:02.141760Z

Period
1,435.98 min
Inclination
54.2967°
Eccentricity
0.0058932
Mean motion
1.00280030 rev/d
Perigee alt
35,535.8 km
Apogee alt
36,032.8 km
Semi-major
42,162.4 km
B*
0.0000e+0
RAAN
163.2045°
Arg perigee
224.9850°
Mean anomaly
321.8842°
Rev number
5,782

§ Raw data

BEIDOU-2 IGSO-1 (C06)1 36828U 10036A   26141.01113590 -.00000079  00000+0  00000+0 0  99962 36828  54.2967 163.2045 0058932 224.9850 321.8842  1.00280030 57824

JSON: /api/v1/satellites/36828 · /tle

For live sub-satellite position, see the globe view (requires WebGL).

§ Visibility from observer

Set your observer location to see the next 7 days of passes ≥ 10°. The values pass through the URL so the page stays shareable.

No JS? Fill the form by hand. The geolocation button needs JavaScript.